SCP
0 0 0 0 0 0 0 0 0 0 0 0 0 0 0 0 0 0 0 0 0 0 0 0 0 0 0 1 1 1 2 2 2 2 2 1 1 1 1 1 1 1 1
0 0 0 0 0 0 0 0 0 0 0 0 0 0 0 0 0 0 0 0 0 0 0 0 0 0 0 1 1 1 2 2 2 2 2 2 1 1 1 1 1 1 1
0 0 0 0 0 0 0 1 1 1 1 1 1 1 1 1 1 1 0 0 0 0 0 0 0 0 0 0 1 1 1 2 2 2 2 2 2 2 1 1 2 2 1
0 0 0 0 1 1 1 1 1 1 1 1 1 1 1 1 1 1 1 1 1 0 0 0 0 0 0 0 0 1 1 1 1 2 2 2 2 2 2 2 2 2 2
0 0 1 1 1 1 1 2 2 2 2 2 2 2 2 2 2 2 1 1 1 1 0 0 0 0 0 0 0 0 0 0 1 1 1 2 2 2 2 2 2 2 2
1 1 1 1 2 2 2 3 3 3 3 2 2 1 1 1 2 2 2 1 1 1 1 1 0 0 0 0 0 0 0 0 0 0 1 1 2 2 2 2 2 2 2
1 1 1 2 2 2 2 2 2 2 2 1 1 1 1 1 1 2 2 1 1 1 1 1 1 0 0 0 0 0 0 0 0 0 0 1 1 2 2 3 3 2 2
1 1 1 2 2 2 2 2 1 1 1 1 1 1 0 1 1 1 1 1 1 1 1 1 1 1 1 0 0 0 0 0 0 0 0 0 1 1 2 3 3 3 2
1 1 1 1 2 2 1 1 1 1 0 0 0 0 0 0 0 1 1 1 1 1 1 1 1 1 1 1 0 0 0 0 0 0 0 0 0 1 1 2 2 3 3
1 1 1 1 2 2 2 2 2 1 1 0 0 0 0 0 0 0 0 1 1 1 1 1 1 1 1 1 1 0 0 0 0 0 0 0 0 0 1 1 2 2 3
1 1 1 1 2 2 2 3 2 2 1 1 0 0 0 0 0 0 0 0 1 1 1 2 2 2 2 2 1 1 1 0 0 0 0 0 0 0 0 1 2 2 2
1 1 1 2 2 2 2 2 2 1 1 1 1 0 0 0 0 0 0 1 1 1 1 2 2 2 2 1 1 1 1 1 0 0 0 0 0 0 0 1 2 3 3
1 1 1 1 1 1 1 1 1 1 1 0 0 0 0 0 0 0 1 1 1 1 1 1 2 2 1 1 1 1 1 1 0 0 0 0 0 0 0 1 2 3 3
1 1 1 1 1 1 0 0 0 0 0 0 0 0 0 0 0 0 0 0 0 0 0 1 1 1 1 1 1 1 1 1 0 0 0 0 0 0 0 1 2 4 4
0 0 0 0 0 0 0 0 0 0 0 0 0 0 0 0 0 0 0 0 0 0 0 0 1 1 1 1 1 1 1 0 0 0 0 0 0 0 0 1 3 4 5
0 0 0 0 0 0 0 0 0 0 0 0 0 0 0 0 0 0 0 0 0 0 0 0 0 0 0 0 0 0 0 0 0 0 0 0 0 0 1 1 2 4 4
0 0 0 0 0 0 0 0 0 0 0 0 0 0 0 0 0 0 0 0 0 0 0 0 0 0 0 0 0 0 0 0 0 0 0 0 0 0 0 1 2 3 3
0 0 0 0 0 0 0 0 0 0 0 0 0 0 0 0 0 0 0 0 0 0 0 0 0 0 0 0 0 0 0 0 0 0 0 0 0 0 0 1 1 1 1
0 0 0 0 0 0 0 0 0 0 0 0 0 0 0 0 0 0 0 0 0 0 0 0 0 0 0 0 0 0 0 0 0 0 0 0 0 0 0 0 0 0 0
0 0 0 0 0 0 0 0 0 0 0 0 0 0 0 0 0 0 0 0 0 0 0 0 0 0 0 0 0 0 0 0 0 0 0 0 0 0 0 0 0 0 0
0 0 0 0 0 0 0 0 0 0 0 0 0 0 0 0 0 0 0 0 0 0 0 0 0 0 0 0 0 0 0 0 0 0 0 0 0 0 0 0 0 0 0
0 0 0 0 0 0 0 0 0 0 0 0 0 0 0 0 0 0 0 0 0 0 0 0 0 0 0 0 0 0 0 0 0 0 0 0 0 0 0 0 0 0 0
0 0 0 0 0 0 0 0 0 0 0 0 0 0 0 0 0 0 0 0 0 0 0 0 0 0 0 0 0 0 0 0 0 0 0 0 0 0 0 0 0 0 0
0 0 0 0 0 0 0 0 0 0 0 0 0 0 0 0 0 0 0 0 0 0 0 0 0 0 0 0 0 0 0 0 0 0 0 0 0 0 0 0 0 0 0
0 0 0 0 0 0 0 0 0 0 0 0 0 0 0 0 0 0 0 0 0 0 0 0 0 0 0 0 0 0 0 0 0 0 0 0 0 0 0 0 0 0 0
0 0 0 0 0 0 0 0 0 0 0 0 0 0 0 0 0 0 0 0 0 0 0 0 0 0 0 0 0 0 0 0 0 0 0 0 0 0 0 0 0 0 0
Wind_Speed
2 3 2 1 1 2 2 0 1 2 4 4 4 5 6 6 6 6 2 6 4 4 6 7 7 8 9 10 11 12 13 13 13 12 11 12 15 17 18 19 19 20 20
1 2 3 1 1 2 3 4 4 4 5 5 7 7 8 9 7 7 9 5 11 9 5 5 7 8 9 10 10 11 12 13 14 14 13 12 13 15 17 17 18 19 20
2 2 1 2 2 3 3 5 6 6 7 7 9 9 9 9 10 10 11 9 8 11 11 7 5 7 9 9 10 11 12 13 14 15 15 14 12 13 15 16 17 17 18
0 2 2 3 3 5 6 5 7 8 8 9 10 10 10 10 12 12 12 12 11 9 8 10 6 7 9 9 10 12 13 14 14 15 15 15 14 12 13 15 16 17 18
2 4 3 3 5 6 6 7 7 8 10 10 11 11 12 12 12 13 13 14 14 12 11 7 11 12 11 10 10 13 14 14 15 15 15 16 15 14 12 12 15 16 17
1 4 3 2 6 6 6 6 7 8 9 10 12 12 13 14 13 13 13 13 12 13 13 13 9 10 14 12 12 14 15 16 16 15 16 16 16 15 14 12 12 15 17
3 4 5 3 5 5 6 8 8 10 10 9 11 13 13 15 15 12 12 12 12 13 13 14 12 11 7 11 14 14 14 17 17 16 16 16 16 16 16 15 12 13 15
4 3 5 6 5 6 7 7 8 9 10 9 11 14 16 15 13 13 10 10 13 13 14 16 15 12 11 10 7 11 17 19 19 18 17 16 16 17 18 17 16 14 13
5 5 6 7 7 9 8 8 10 11 11 12 12 12 14 17 15 14 17 16 15 13 14 13 15 14 14 12 13 15 16 15 17 19 18 17 17 18 18 19 19 17 14
6 7 8 8 9 10 11 11 11 11 13 14 12 11 14 15 17 17 16 16 16 15 16 14 15 14 14 13 13 15 15 16 17 18 19 18 18 18 19 20 20 19 18
6 8 8 9 10 11 12 13 13 14 13 14 14 14 15 14 17 17 19 18 15 15 15 14 12 11 12 14 14 17 12 9 12 16 19 20 21 21 21 21 21 21 20
8 10 11 11 12 13 13 14 14 16 15 16 15 14 15 15 15 15 18 19 16 15 14 12 11 11 12 14 17 13 6 8 12 16 19 21 23 23 23 22 22 22 21
11 12 13 13 14 14 15 15 15 16 16 17 16 14 14 14 13 14 15 17 18 15 15 12 10 11 12 12 11 6 8 7 9 14 18 22 24 25 25 24 23 23 22
13 15 15 15 16 16 16 15 15 16 14 15 16 16 13 13 12 12 12 13 15 15 14 14 9 10 10 10 8 4 6 4 7 11 15 19 22 24 25 24 23 21 19
14 16 16 16 16 16 15 15 13 14 14 14 14 14 12 11 11 10 10 10 12 14 13 13 11 11 9 8 5 5 1 9 10 11 14 16 18 20 22 23 21 19 16
14 15 15 15 14 14 14 13 13 12 13 12 11 13 13 11 10 9 9 9 10 12 12 9 11 11 10 8 3 1 5 10 13 15 19 21 20 15 15 18 17 17 20
13 13 13 13 13 12 12 11 12 13 13 13 12 13 13 13 10 9 9 9 10 10 13 10 10 9 10 7 3 4 4 5 8 18 23 27 28 21 4 12 18 23 23
11 11 11 11 11 11 11 12 11 12 13 13 13 13 13 11 12 10 9 10 10 10 11 13 9 7 6 4 5 6 5 6 7 18 25 30 32 29 21 18 22 25 25
10 10 10 10 11 11 11 11 11 12 13 13 13 13 13 12 12 10 11 10 9 10 9 9 9 5 2 3 7 8 8 6 7 11 20 26 31 32 31 29 30 31 29
10 10 10 11 11 11 10 12 13 14 13 13 12 11 12 12 13 13 11 11 10 10 9 9 7 5 3 5 7 7 7 6 7 9 15 18 25 28 31 31 33 35 34
10 10 11 11 11 9 12 16 16 16 15 13 12 11 11 14 18 14 12 11 10 9 7 7 7 5 5 8 7 6 9 8 9 7 10 11 12 13 15 22 27 32 33
9 10 10 11 12 10 15 20 19 17 15 13 11 12 12 13 16 20 22 21 17 12 9 7 6 7 8 9 8 9 9 7 6 6 9 11 10 11 11 12 23 28 29
10 10 11 12 13 12 15 20 24 19 14 11 11 11 11 12 16 15 18 20 16 16 15 8 7 9 11 12 12 10 7 9 10 7 10 11 10 11 10 14 24 25 26
10 10 11 12 11 10 14 20 27 17 12 12 11 10 12 14 15 18 16 11 7 8 12 9 6 10 12 12 11 13 15 14 12 9 8 11 10 11 11 12 21 23 24
10 10 11 11 12 11 13 18 25 14 12 14 12 11 14 15 19 22 13 8 3 2 6 8 8 13 17 18 17 14 13 13 12 9 6 9 11 12 12 12 16 22 22
10 11 11 12 13 14 13 16 23 12 13 12 11 12 15 19 21 19 11 8 5 4 7 11 14 18 17 17 15 12 11 14 13 8 6 8 11 10 10 10 11 12 15
Wind_Direction
139 145 134 143 134 112 158 200 356 350 306 298 306 308 314 311 303 313 295 169 210 276 310 323 323 323 323 322 324 326 327 328 322 304 287 268 251 244 241 238 235 231 228
85 182 188 215 283 321 355 320 318 301 296 307 296 299 296 301 295 287 294 257 203 208 240 291 310 315 316 317 321 325 327 327 327 325 308 284 262 248 241 237 235 232 227
51 310 277 259 318 312 293 280 298 287 281 286 285 287 284 283 289 289 284 287 272 212 207 225 271 298 303 307 313 317 319 321 320 321 322 313 286 258 244 238 234 229 225
306 284 289 287 311 287 284 287 281 290 291 288 290 291 290 284 275 275 276 276 280 280 242 205 226 267 276 287 298 303 308 309 311 314 316 318 315 293 259 242 236 230 225
233 260 278 305 283 283 289 294 304 302 297 295 291 285 282 283 284 277 276 278 278 274 275 237 212 231 243 259 279 289 293 296 300 305 309 312 311 313 297 261 242 234 229
316 296 276 322 303 300 309 319 314 300 298 292 294 295 289 285 281 278 277 275 273 271 267 277 272 244 220 233 258 275 282 285 289 294 298 303 306 304 303 291 260 241 233
22 348 329 344 326 330 332 321 320 307 297 307 298 291 288 282 276 272 266 269 276 279 278 274 270 272 256 237 239 254 273 281 281 284 290 294 298 300 297 293 282 254 237
10 7 4 330 346 326 307 317 315 307 306 303 299 298 293 287 278 278 277 268 269 273 274 275 274 266 268 278 275 265 273 272 274 277 282 288 292 294 293 290 284 268 244
4 357 342 333 328 311 313 316 300 299 304 302 289 291 294 293 300 293 289 282 275 266 265 267 270 269 268 269 278 272 271 268 271 277 279 282 286 289 289 286 281 272 255
337 332 328 324 316 311 307 294 306 305 294 291 291 281 277 284 289 291 283 277 277 272 266 263 264 268 269 270 272 274 265 259 266 275 280 282 283 283 283 282 278 272 262
314 315 318 316 310 301 302 301 295 290 290 288 290 290 286 279 273 273 281 282 276 273 272 267 263 262 267 272 273 271 260 248 269 279 284 285 284 281 277 275 273 269 261
311 310 314 310 303 301 301 297 294 287 284 285 283 281 280 278 279 279 280 283 284 283 283 279 271 269 270 271 269 274 263 270 281 287 289 287 283 277 273 268 266 263 258
310 316 317 310 303 303 299 294 289 285 283 280 278 277 278 279 283 282 281 283 287 289 288 279 268 267 269 269 275 279 256 269 292 298 295 289 282 274 267 261 257 256 253
311 315 307 301 300 297 295 293 290 286 284 283 281 281 280 278 278 276 276 281 283 284 281 280 275 266 268 275 281 258 274 30 345 325 311 299 287 273 261 253 248 245 238
306 306 307 302 298 297 295 294 288 291 290 286 284 282 279 279 278 276 275 272 275 279 278 281 280 277 279 272 261 266 48 58 30 7 351 335 311 281 258 243 234 223 206
309 307 304 304 303 301 301 301 299 298 298 293 289 285 283 280 278 275 273 270 266 270 274 273 276 282 288 280 230 155 95 72 46 32 23 9 352 318 257 225 200 178 156
313 307 307 308 309 309 307 302 301 304 302 299 295 290 286 281 276 272 269 265 263 261 268 271 271 280 280 261 183 125 94 69 51 43 38 27 16 7 348 172 152 140 134
311 311 310 309 310 309 310 311 313 310 303 299 296 294 291 286 279 274 268 263 259 254 257 265 266 269 266 229 145 115 95 76 60 51 49 42 31 29 47 90 110 113 114
313 310 309 314 314 313 314 316 314 308 302 299 297 295 292 287 283 278 273 268 260 254 244 249 256 250 221 149 125 107 90 70 58 53 53 50 44 40 49 64 81 88 91
314 314 317 314 314 317 331 335 321 308 299 296 295 295 295 291 287 285 282 276 269 257 241 237 240 227 176 145 134 121 97 69 55 50 55 53 50 44 47 58 70 78 81
317 319 320 325 334 340 4 343 325 311 304 301 303 306 302 297 294 296 293 285 276 261 240 224 220 198 163 154 143 123 110 97 69 54 62 52 51 47 43 49 63 74 79
331 336 344 345 343 4 2 343 332 316 306 306 312 315 312 307 312 306 299 290 275 258 236 214 203 183 164 150 134 132 130 124 90 60 75 67 59 60 54 56 69 75 81
350 350 349 348 345 12 5 344 337 318 307 315 318 320 321 323 318 315 305 293 272 245 231 214 193 173 160 152 141 137 114 96 96 99 92 83 73 75 71 73 80 84 87
352 350 352 353 350 15 11 349 339 320 326 328 328 334 336 330 327 324 311 298 267 222 206 204 187 167 155 145 136 121 113 103 93 86 93 95 90 86 83 79 83 88 91
351 350 0 359 356 3 11 353 344 330 338 333 337 351 348 338 331 332 330 330 335 171 171 161 137 129 127 127 128 124 124 117 109 102 97 101 106 102 96 94 90 89 91
354 355 2 2 0 356 1 355 345 341 342 335 340 350 349 341 337 343 351 358 22 73 118 116 113 113 117 121 123 129 133 127 123 113 119 117 117 112 104 103 108 106 98